Left ArrowRight Arrow

39.71368, -82.59933

Hourly Observations for June 13, 2024

Temp ( °F °C ) Dew Point ( °F °C ) Humidity (%) Winds ( mph kmh ) Pressure ( in mb ) Visibility ( mi km ) Precip ( " mm )
12:53 am 00:53 Clear 58 14.4 55 12.8 90 90 Calm 29.98 1015 10 16 0.00 0.00
1:53 am 01:53 Clear 57 13.9 56 13.3 96 96 Calm 29.98 1015 10 16 0.00 0.00
2:53 am 02:53 Clear 56 13.3 55 12.8 97 97 Calm 29.99 1016 10 16 0.00 0.00
3:53 am 03:53 Clear 54 12.2 54 12.2 100 100 Calm 29.98 1015 10 16 0.00 0.00
4:53 am 04:53 Clear 52 11.1 52 11.1 100 100 Calm 29.98 1015 10 16 0.00 0.00
5:53 am 05:53 Clear 53 11.7 53 11.7 100 100 Calm 29.99 1016 10 16 0.00 0.00
6:53 am 06:53 Sunny 56 13.3 55 12.8 97 97 S 3 6 30.00 1016 10 16 0.00 0.00
7:53 am 07:53 Sunny 63 17.2 58 14.4 84 84 SSE 3 6 30.00 1016 10 16 0.00 0.00
8:53 am 08:53 Sunny 72 22.2 59 15 64 64 SSW 6 9 30.01 1016 10 16 0.00 0.00
9:53 am 09:53 Sunny 76 24.4 59 15 56 56 SW 7 11 30.01 1016 10 16 0.00 0.00
10:53 am 10:53 Sunny 78 25.6 57 13.9 48 48 SW 9 15 30.01 1016 10 16 0.00 0.00
11:53 am 11:53 Partly Cloudy 81 27.2 58 14.4 45 45 W 9 15 30.01 1016 10 16 0.00 0.00
12:53 pm 12:53 Sunny 82 27.8 56 13.3 41 41 SW 8 13 29.98 1015 10 16 0.00 0.00
1:53 pm 13:53 Sunny 84 28.9 57 13.9 40 40 VRB 7 11 29.96 1015 10 16 0.00 0.00
2:53 pm 14:53 Sunny 85 29.4 57 13.9 39 39 undefined N/A 29.96 1015 10 16 0.00 0.00
3:53 pm 15:53 Sunny 86 30 58 14.4 39 39 S 12 19 29.95 1014 10 16 0.00 0.00
4:53 pm 16:53 Sunny 86 30 58 14.4 39 39 SW 10 17 29.94 1014 10 16 0.00 0.00
5:53 pm 17:53 Sunny 85 29.4 58 14.4 40 40 S 12 19 29.93 1014 10 16 0.00 0.00
6:53 pm 18:53 Sunny 84 28.9 58 14.4 41 41 SSW 10 17 29.91 1013 10 16 0.00 0.00
7:53 pm 19:53 Sunny 81 27.2 57 13.9 44 44 SSW 6 9 29.94 1014 10 16 0.00 0.00
8:53 pm 20:53 Sunny 77 25 58 14.4 52 52 S 5 7 29.92 1013 10 16 0.00 0.00
9:53 pm 21:53 Clear 70 21.1 61 16.1 73 73 S 3 6 29.93 1014 10 16 0.00 0.00
10:53 pm 22:53 Clear 67 19.4 61 16.1 81 81 Calm 29.93 1014 10 16 0.00 0.00
11:53 pm 23:53 Clear 74 23.3 58 14.4 57 57 S 7 11 29.89 1012 10 16 0.00 0.00

Powered by Vaisala Xweather